Flag for Germany Weather past 2 weeks in Gütersloh, North Rhine-Westphalia, Germany

Now
72 °F

Scattered clouds.


Feels Like: 76 °F
Forecast: 58 / 76 °F
Wind: 5 mph from South

Location: Bad Lippspringe

Current Time: Sep 16, 2014 at 3:58:59 PM

Latest Report: Sep 16, 2014 at 3:00 PM


Visibility: 5 mi

Pressure: 30.00 "Hg

Humidity: 61%

Dew point: 58 °F

Location of GüterslohLocation

Historic Weather in Gütersloh — Graph

°F

Gütersloh temperature yesterday

Maximum temperature yesterday: 69 °F (at 4:00 PM)
Minimum temperature yesterday: 53 °F (at 12:00 AM)
Average temperature yesterday: 62 °F

Past Weeks' High & Low Weather Summary

 TemperatureHumidityPressure
High79 °F (Sep 6, 3:00 PM)100% (Sep 3, 3:00 AM)30.27 "Hg (Sep 3, 3:00 AM)
Low44 °F (Sep 12, 5:00 AM)45% (Sep 6, 3:00 PM)29.85 "Hg (Sep 6, 6:00 PM)
Average60 °F83%30.09 "Hg
* Reported Sep 1 2:00 PM — Sep 16 2:00 PM, Gütersloh, Weather by CustomWeather, © 2014

Note: Actual official high and low records may vary slightly from our data, if they occured in-between our weather recording intervals... More about our weather records

Advertising

Gütersloh weather history for previous 24 hours

 ConditionsComfort  
Time TempWeatherWind HumidityBarometerVisibility
2:00 PM
Sep 16
72 °FPassing clouds.5 mph65%30.01 "Hg6 mi
1:00 PM71 °FSunny.6 mph66%30.01 "Hg5 mi
12:00 PM70 °FSunny.5 mph68%30.01 "Hg6 mi
11:00 AM69 °FPassing clouds.5 mph72%30.02 "Hg4 mi
10:00 AM67 °FSunny.2 mph76%30.02 "Hg3 mi
9:00 AM63 °FFog.6 mph87%30.01 "Hg2 mi
8:00 AM63 °FFog.2 mph88%30.02 "Hg2 mi
7:00 AM62 °FFog.3 mph88%30.02 "Hg2 mi
6:00 AM63 °FFog.6 mph87%30.02 "Hg2 mi
5:00 AM63 °FFog.3 mph87%30.02 "Hg2 mi
4:00 AM63 °FFog.5 mph85%30.02 "Hg3 mi
3:00 AM63 °FFog.5 mph84%30.02 "Hg3 mi
2:00 AM64 °FFog.5 mph84%30.03 "Hg3 mi
1:00 AM64 °FFog.3 mph83%30.03 "Hg3 mi
12:00 AM64 °FFog.5 mph82%30.04 "Hg3 mi
11:00 PM
Sep 15
65 °FOvercast.5 mph79%30.04 "Hg4 mi
10:00 PM65 °FFog.2 mph80%30.03 "Hg4 mi
9:00 PM64 °FOvercast.2 mph81%30.03 "Hg6 mi
8:00 PM65 °FOvercast.2 mph83%30.03 "Hg6 mi
7:00 PM68 °FOvercast.1 mph74%30.03 "Hg6 mi
6:00 PM69 °FOvercast.3 mph70%30.02 "Hg7 mi
4:00 PM69 °FOvercast.3 mph68%30.03 "Hg7 mi
3:00 PM69 °FOvercast.5 mph67%30.04 "Hg7 mi
Weather by CustomWeather, © 2014

See weather overviewHow to use our weather pages